2019-038K (44395 NORAD) Tracking and Keplerian Element Data

This shows tracking and keplerian element data for the satellite.

Feedback or suggestion? Click here.




ElementValue
Catalog44395
Name2019-038K
Epoch Orbit189
Epoch Day199.0759773
Epoch Year2019
RAAN160.7818
Inclination97.4891
Eccentricity0.0024732
Argument of Perigee199.4091
Mean Anonmoly160.62
Mean Motion15.11622323
Decay Rate1.09E-06
L11 44395U 19038K 19199.07597730 .00000109 00000-0 10212-4 0 9993
L22 44395 97.4891 160.7818 0024732 199.4091 160.6200 15.11622323 1896

Live tracking and technical data element details for 2019-038K (NORAD 44395). 2019-038K can be tracked NOW for your location showing map with azimuth and elevation plus other details from your city location.

Track the satellite on the map from your city or location and see movement details for azimuth, elevation, latitude, longitude, range, height, and movement on the map or in text.







IsCatalogInMostPopularTable: catalog: 44395, numindb: 7
Update: records affected: 1



GetName: 44395 2019-038K

Hit Count: updated at: Fri, 19 Jul 2019 07:58:37 GMT